Lexington Weather

Lexington, Massachusetts, USA

44°F
5/12/2021 5:09am 
  • Lexington Conditions: Clear
  • Temperature: 44.4°F / 6.9°C 
  • Dew Point: 33.4°FIncreased 0.9°Fsince last hour.
  • Relative Humidity: 65%Increased 2.0% since last hour.
  • Wind: Wind from W W Calm, 10-min avg: 1 mph, gust: 7 mph
  • Barometer: 29.94 inRising 0.02  inHg/hr Rising Slowly
  • Visibility: 10 miles
  • Rain Today: 0.00 in
  •   

Regional Weather Roundup
for Boston / Norton, MA

        
000
ASUS41 KBOX 120804
RWRBOX

REGIONAL WEATHER ROUNDUP
NATIONAL WEATHER SERVICE BOSTON/NORTON MA
400 AM EDT WED MAY 12 2021

NOTE:  "FAIR" INDICATES FEW OR NO CLOUDS BELOW 12,000 FEET WITH NO 
SIGNIFICANT WEATHER AND/OR OBSTRUCTIONS TO VISIBILITY.

MAZALL-120900-
EASTERN MASSACHUSETTS
  
CITY           SKY/WX    TMP DP  RH WIND       PRES   REMARKS
BOSTON         CLEAR     49  28  44 W14       29.96F                  
BEVERLY        CLEAR     46  28  49 W8        29.94S                  
LAWRENCE       CLEAR     45  29  53 W7        29.96S                  
BEDFORD        CLEAR     44  29  55 W5        29.95F                  
BLUE HILL        N/A     42  28  57 W14       29.94F                  
NORWOOD        CLEAR     46  29  51 W6        29.98S                  
MARSHFIELD     CLEAR     46  30  53 VRB7G13   29.96S                  
PLYMOUTH       CLEAR     45  28  51 W9        29.97S                  
TAUNTON        CLEAR     45  29  53 W5        29.99S                  
NEW BEDFORD    CLEAR     47  29  49 W13       29.99S                  
$$

MAZALL-120900-
CAPE COD AND THE ISLANDS
  
CITY           SKY/WX    TMP DP  RH WIND       PRES   REMARKS
FALMOUTH       CLEAR     46  27  46 NW14      29.99S                  
HYANNIS        CLEAR     49  28  44 W10       29.97R                  
CHATHAM        CLEAR     47  28  47 VRB6      29.98S                  
PROVINCETOWN   CLEAR     48  33  56 MISG      29.97S                  
NANTUCKET      PTCLDY    50  31  48 W10       29.99S                  
MARTHAS VNYRD  CLEAR     49  31  49 W14G21    30.00S                  
$$
 
MAZALL-120900-
CENTRAL AND WESTERN MASSACHUSETTS
  
CITY           SKY/WX    TMP DP  RH WIND       PRES   REMARKS
WORCESTER      CLEAR     41  29  62 W10       29.97R                  
FITCHBURG      CLEAR     45  31  58 NW13      29.96S                  
ORANGE         CLEAR     44  31  60 W5        29.99S                  
SPRINGFIELD    MOCLDY    45  30  55 W10       30.01S                  
WESTFIELD      CLEAR     45  31  58 W9G20     30.02S                  
NORTH ADAMS    CLOUDY    44  33  65 W16       30.01S                  
PITTSFIELD     CLOUDY    41  31  67 W13G24    30.00S                  
$$
 
RIZALL-120900-
RHODE ISLAND
  
CITY           SKY/WX    TMP DP  RH WIND       PRES   REMARKS
PROVIDENCE     CLEAR     45  29  53 W6        30.01S                  
NEWPORT        CLEAR     45  30  55 VRB6      30.01S                  
BLOCK ISLAND   CLEAR     46  31  55 W9G16     30.05S                  
SMITHFIELD     CLEAR     43  31  62 W9        29.99F                  
WESTERLY       CLEAR     45  29  53 VRB5      30.03F                  
$$
 
CTZALL-120900-
CONNECTICUT
  
CITY           SKY/WX    TMP DP  RH WIND       PRES   REMARKS
BRADLEY INTL   PTCLDY    45  30  55 W12       30.04S                  
HARTFORD       CLEAR     44  30  57 CALM      30.05F                  
BRIDGEPORT     CLEAR     47  30  51 W8        30.07F                  
DANBURY        CLEAR     44  29  55 SW7       30.08S                  
GROTON         CLEAR     45  30  55 W5        30.04S                  
NEW HAVEN      CLEAR     48  33  56 NW8       30.06F                  
CHESTER        FAIR      43  30  61 VRB7G14   30.03F                  
MERIDEN        CLEAR     44  31  60 NW3       30.06S                  
WILLIMANTIC    CLEAR     45  30  55 W6        30.03S                  
OXFORD         CLEAR     41  31  67 W5        30.06S                  
$$

MEZ002-015-021-024-NHZ003-005-008-011-012-014-VTZ005-008-120900-
NORTHERN NEW ENGLAND
  
CITY           SKY/WX    TMP DP  RH WIND       PRES   REMARKS
PORTLAND ME    CLEAR     42  33  70 W6        29.89F                  
BANGOR ME      LGT RAIN  43  40  89 W6        29.81F                  
CONCORD NH     PTCLDY    41  28  60 CALM      29.94S                  
MANCHESTER NH  CLEAR     47  28  47 W7        29.94R                  
NASHUA NH      CLEAR     42  31  64 W5        29.96S                  
PORTSMOUTH NH  CLEAR     45  26  47 W8        29.93S                  
JAFFREY NH     CLEAR     42  31  64 W7        29.96S                  
KEENE NH       PTCLDY    37  31  78 S5        29.98S                  
BURLINGTON VT  CLOUDY    44  39  82 NW6       29.99R                  
MT. WASHINGTON SNOWSHWR  21  21 100 W38         N/A  VSB 0   WCI   1  
$$

NYZ052-076-120900-
EASTERN NEW YORK
  
CITY           SKY/WX    TMP DP  RH WIND       PRES   REMARKS
ALBANY         CLOUDY    42  34  73 W15G21    30.05S                  
NEW YORK CITY  PTCLDY    50  30  46 NW22G28   30.09F                  
$$
 
ANZALL-120900-
MARINE OBSERVATIONS
  
STATION/POSITION TIME  TEMP    WIND        PRES    VSBY  WAVE
                       AIR SEA DIR/SP/G                  HT/PER
                 (UTC) (F)     (DEG/KT/KT) (MB)    (MI)  (FT/S)
BOSTON BUOY      0740   49 49  270/ 17/ 23 1014.5S
BUZZARDS BAY     0700          300/ 18/ 19 1017.4F
NANTUCKET SOUND  0740      53                N/A
MASS BAY-STELLWA 0704   49     270/ 16/ 19 1012.8F  1 7/8  2/ 4
ISLE OF SHOALS   0700   48     260/ 14/ 15 1012.8F
S OF BLOCK IS    0726      50                N/A           4/ 8
$$

......................KEY.........................
  SKY/WX - SKY CONDITION/PRESENT WEATHER
  TMP    - TEMPERATURE IN FAHRENHEIT
  DWPT   - DEWPOINT IN FAHRENHEIT
  RH     - RELATIVE HUMIDITY IN PERCENT
  WIND   - DIRECTION AND SPEED IN MPH
  PRES   - MEAN SEA LEVEL PRESSURE IN INCHES OF HG
  WCI    - WIND CHILL INDEX
  VSB    - VISIBILITY IN MILES
  HX     - HEAT INDEX
  TC     - TEMPERATURE IN CELSIUS
  VRB    - VARIABLE WIND DIRECTION
  N/A    - NOT AVAILABLE
  
      

Other recent Regional Weather Roundups

Wed May 12, 3:04am

Wed May 12, 2:04am

Wed May 12, 1:04am

Wed May 12, 12:05am

Tue May 11, 11:05pm

Tue May 11, 10:04pm

Tue May 11, 9:05pm

Tue May 11, 8:05pm

Tue May 11, 7:04pm

Tue May 11, 6:04pm

Tue May 11, 5:04pm

Tue May 11, 4:05pm

Tue May 11, 3:04pm

Tue May 11, 2:05pm

Tue May 11, 1:04pm

Tue May 11, 12:05pm

Tue May 11, 11:05am

Tue May 11, 10:04am

Tue May 11, 9:04am

Tue May 11, 8:04am

Tue May 11, 7:05am

Tue May 11, 6:04am

Tue May 11, 5:04am

Tue May 11, 4:04am

Tue May 11, 3:04am

Tue May 11, 2:04am

Tue May 11, 1:04am

Tue May 11, 12:04am

Mon May 10, 11:04pm

Mon May 10, 10:04pm

Mon May 10, 9:05pm

Mon May 10, 8:04pm

Mon May 10, 7:05pm

Mon May 10, 6:04pm

Mon May 10, 5:04pm

Mon May 10, 4:04pm

Mon May 10, 3:04pm

Mon May 10, 2:04pm

Mon May 10, 1:04pm

Mon May 10, 12:04pm

Mon May 10, 11:05am

Mon May 10, 10:04am

Mon May 10, 9:04am

Mon May 10, 8:04am

Mon May 10, 7:04am

Mon May 10, 6:04am

Mon May 10, 5:05am

Mon May 10, 4:04am

Mon May 10, 3:04am

Mon May 10, 2:04am

Mon May 10, 1:04am

Mon May 10, 12:04am

Sun May 9, 11:04pm

Sun May 9, 10:04pm

Sun May 9, 9:04pm

Sun May 9, 8:04pm

Sun May 9, 7:05pm

Sun May 9, 6:04pm

Sun May 9, 5:04pm

Sun May 9, 4:04pm

Sun May 9, 3:04pm

Sun May 9, 2:04pm

Sun May 9, 1:05pm

Sun May 9, 12:04pm

Sun May 9, 11:05am

Sun May 9, 10:04am

Sun May 9, 9:04am

Sun May 9, 8:04am

Sun May 9, 7:04am

Sun May 9, 6:04am

Sun May 9, 5:04am

Sun May 9, 4:04am

Sun May 9, 3:04am

Sun May 9, 2:04am

Sun May 9, 1:05am

Sun May 9, 12:04am

Sat May 8, 11:05pm

Sat May 8, 10:04pm

Sat May 8, 9:05pm

Sat May 8, 8:04pm

Sat May 8, 7:04pm

Sat May 8, 6:04pm

Sat May 8, 5:05pm

Sat May 8, 4:04pm

Sat May 8, 3:05pm

Sat May 8, 2:05pm

Sat May 8, 1:05pm

Sat May 8, 12:04pm

Sat May 8, 11:05am

Sat May 8, 10:04am

Sat May 8, 9:04am

Sat May 8, 8:04am

Sat May 8, 7:04am

Sat May 8, 6:04am

Sat May 8, 5:04am

Sat May 8, 4:04am

Sat May 8, 3:04am

Sat May 8, 2:04am

Sat May 8, 1:05am

Sat May 8, 12:04am

Fri May 7, 11:04pm

Fri May 7, 10:05pm

Fri May 7, 9:04pm

Fri May 7, 8:04pm

Fri May 7, 7:05pm

Fri May 7, 6:04pm

Fri May 7, 5:05pm

Fri May 7, 4:04pm

Fri May 7, 3:04pm

Fri May 7, 2:05pm

Fri May 7, 1:04pm

Fri May 7, 12:04pm

Fri May 7, 11:05am

Fri May 7, 10:04am

Fri May 7, 9:04am

Fri May 7, 8:05am

Fri May 7, 7:04am

Fri May 7, 6:04am

Fri May 7, 5:04am

Fri May 7, 4:04am

Fri May 7, 3:04am

Fri May 7, 2:05am

Fri May 7, 1:04am

Fri May 7, 12:05am

Thu May 6, 11:04pm

Thu May 6, 10:04pm

Thu May 6, 9:05pm

Thu May 6, 8:04pm

Thu May 6, 7:04pm

Thu May 6, 6:04pm

Thu May 6, 5:05pm

Thu May 6, 4:04pm

Thu May 6, 3:04pm

Thu May 6, 2:05pm

Thu May 6, 1:04pm

Thu May 6, 12:04pm

Thu May 6, 11:04am

Thu May 6, 10:04am

Thu May 6, 9:04am

Thu May 6, 8:04am

Thu May 6, 7:04am

Thu May 6, 6:04am

Thu May 6, 5:04am

Thu May 6, 4:04am

Thu May 6, 3:04am

Thu May 6, 2:05am

Thu May 6, 1:04am

Thu May 6, 12:05am

Wed May 5, 11:04pm

Wed May 5, 10:04pm

Wed May 5, 9:05pm

Wed May 5, 8:04pm

Wed May 5, 7:05pm

Wed May 5, 6:04pm

Wed May 5, 5:04pm

Wed May 5, 4:04pm

Wed May 5, 3:04pm

Wed May 5, 2:05pm

Wed May 5, 1:05pm

Wed May 5, 12:04pm

Wed May 5, 11:05am

Wed May 5, 10:04am

Wed May 5, 9:04am

Wed May 5, 8:04am

Wed May 5, 7:04am

Wed May 5, 6:05am

Wed May 5, 5:04am

Meta data:

ID: 6d57d4eb-736b-4822-995a-e98ea7d6e367
Link: https://api.weather.gov/products/6d57d4eb-736b-4822-995a-e98ea7d6e367